| time (UTC) | temp F | wind direction | speed MPH | gust MPH | rain 1hr in | rain 24hr in | rain mn in | humidity % | barometer mb |
| 20260506201532 | 63 | 302 | 2.0 | 2.0 | 0.00 | 0.29 | 0.29 | 89 | 1006.2 |
| 20260506201028 | 63 | 322 | 1.0 | 2.0 | 0.00 | 0.29 | 0.29 | 90 | 1006.1 |
| 20260506200524 | 63 | 91 | 2.0 | 3.0 | 0.00 | 0.29 | 0.29 | 89 | 1006.2 |
| 20260506200021 | 63 | 253 | 3.0 | 6.0 | 0.00 | 0.29 | 0.29 | 90 | 1006.1 |
| 20260506195518 | 63 | 3 | 1.0 | 2.0 | 0.00 | 0.29 | 0.29 | 90 | 1006.3 |
| 20260506195014 | 63 | 239 | 6.0 | 6.0 | 0.00 | 0.29 | 0.29 | 91 | 1006.2 |
| 20260506194512 | 62 | 289 | 2.0 | 8.0 | 0.00 | 0.29 | 0.29 | 90 | 1006.2 |
| 20260506194008 | 62 | 256 | 2.0 | 6.0 | 0.00 | 0.29 | 0.29 | 91 | 1006.3 |
| 20260506193506 | 62 | 254 | 2.0 | 2.0 | 0.00 | 0.29 | 0.29 | 92 | 1006.6 |
| 20260506193002 | 62 | 50 | 1.0 | 2.0 | 0.00 | 0.29 | 0.29 | 92 | 1006.4 |
| 20260506192459 | 62 | 256 | 1.0 | 3.0 | 0.00 | 0.29 | 0.29 | 92 | 1006.8 |
| 20260506191955 | 62 | 16 | 0.0 | 6.0 | 0.00 | 0.29 | 0.29 | 92 | 1006.5 |
| 20260506191452 | 62 | 23 | 2.0 | 4.0 | 0.00 | 0.29 | 0.29 | 92 | 1006.6 |
| 20260506190948 | 62 | 238 | 2.0 | 4.0 | 0.00 | 0.29 | 0.29 | 92 | 1006.7 |
| 20260506190446 | 61 | 82 | 1.0 | 4.0 | 0.00 | 0.29 | 0.29 | 92 | 1006.8 |
| 20260506185942 | 61 | 235 | 4.0 | 4.0 | 0.00 | 0.29 | 0.29 | 92 | 1006.8 |
| 20260506185439 | 61 | 299 | 1.0 | 4.0 | 0.00 | 0.29 | 0.29 | 92 | 1006.8 |
| 20260506184936 | 61 | 5 | 1.0 | 3.0 | 0.00 | 0.29 | 0.29 | 93 | 1006.8 |
| 20260506184433 | 61 | 262 | 0.0 | 6.0 | 0.00 | 0.29 | 0.29 | 92 | 1007.0 |
| 20260506183931 | 61 | 282 | 2.0 | 8.0 | 0.02 | 0.29 | 0.29 | 92 | 1007.0 |
| 20260506183426 | 61 | 281 | 1.0 | 3.0 | 0.02 | 0.29 | 0.29 | 93 | 1007.2 |
| 20260506182923 | 61 | 280 | 2.0 | 3.0 | 0.00 | 0.29 | 0.29 | 93 | 1007.2 |
| 20260506182420 | 60 | 308 | 2.0 | 6.0 | 0.00 | 0.29 | 0.29 | 93 | 1007.1 |
| 20260506181918 | 60 | 269 | 0.0 | 3.0 | 0.02 | 0.29 | 0.29 | 93 | 1007.2 |
| 20260506181415 | 60 | 236 | 0.0 | 4.0 | 0.02 | 0.29 | 0.29 | 93 | 1007.2 |
| 20260506180912 | 61 | 289 | 3.0 | 7.0 | 0.00 | 0.29 | 0.29 | 92 | 1007.1 |
| 20260506180408 | 60 | 225 | 4.0 | 6.0 | 0.00 | 0.29 | 0.29 | 92 | 1007.1 |
| 20260506175905 | 60 | 248 | 2.0 | 4.0 | 0.00 | 0.29 | 0.29 | 93 | 1007.4 |
| 20260506175402 | 60 | 322 | 1.0 | 5.0 | 0.00 | 0.29 | 0.29 | 93 | 1007.1 |
| 20260506174859 | 60 | 240 | 2.0 | 3.0 | 0.00 | 0.29 | 0.29 | 93 | 1007.4 |
| 20260506174356 | 60 | 261 | 3.0 | 3.0 | 0.00 | 0.29 | 0.29 | 93 | 1007.2 |
| 20260506173854 | 60 | 237 | 3.0 | 5.0 | 0.00 | 0.29 | 0.29 | 93 | 1007.2 |
| 20260506173350 | 60 | 311 | 0.0 | 6.0 | 0.02 | 0.29 | 0.29 | 93 | 1007.3 |
| 20260506172847 | 60 | 264 | 3.0 | 5.0 | 0.09 | 0.29 | 0.29 | 93 | 1007.3 |
| 20260506172344 | 60 | 115 | 2.0 | 5.0 | 0.14 | 0.28 | 0.28 | 93 | 1007.3 |
| 20260506171842 | 60 | 288 | 2.0 | 4.0 | 0.17 | 0.27 | 0.27 | 93 | 1007.2 |
| 20260506171338 | 60 | 8 | 1.0 | 3.0 | 0.14 | 0.26 | 0.26 | 93 | 1007.4 |
| 20260506170836 | 60 | 28 | 2.0 | 7.0 | 0.09 | 0.24 | 0.24 | 92 | 1007.4 |
| 20260506170332 | 61 | 238 | 2.0 | 3.0 | 0.00 | 0.22 | 0.22 | 92 | 1007.6 |
| 20260506165832 | 61 | 230 | 3.0 | 6.0 | 0.00 | 0.22 | 0.22 | 92 | 1007.6 |
| 20260506165329 | 61 | 249 | 6.0 | 8.0 | 0.00 | 0.22 | 0.22 | 92 | 1007.6 |
| 20260506164825 | 61 | 224 | 0.0 | 8.0 | 0.02 | 0.22 | 0.22 | 92 | 1007.6 |
| 20260506164322 | 61 | 339 | 2.0 | 8.0 | 0.02 | 0.22 | 0.22 | 92 | 1007.6 |
| 20260506163819 | 61 | 220 | 6.0 | 7.0 | 0.02 | 0.22 | 0.22 | 92 | 1007.6 |
| 20260506163314 | 61 | 229 | 7.0 | 9.0 | 0.05 | 0.22 | 0.22 | 92 | 1007.8 |
| 20260506162809 | 61 | 46 | 0.0 | 4.0 | 0.07 | 0.22 | 0.22 | 93 | 1007.4 |
| 20260506162308 | 61 | 293 | 1.0 | 8.0 | 0.07 | 0.21 | 0.21 | 93 | 1007.0 |
| 20260506161805 | 61 | 89 | 3.0 | 4.0 | 0.05 | 0.20 | 0.20 | 93 | 1006.8 |
| 20260506161302 | 61 | 263 | 1.0 | 4.0 | 0.05 | 0.20 | 0.20 | 92 | 1006.9 |
| 20260506160800 | 61 | 175 | 1.0 | 6.0 | 0.05 | 0.20 | 0.20 | 92 | 1007.6 |
| 20260506160256 | 61 | 88 | 3.0 | 4.0 | 0.07 | 0.19 | 0.19 | 92 | 1007.9 |
| 20260506155755 | 61 | 77 | 3.0 | 9.0 | 0.09 | 0.19 | 0.19 | 92 | 1008.3 |
| 20260506155251 | 61 | 229 | 4.0 | 4.0 | 0.07 | 0.18 | 0.18 | 92 | 1008.2 |
| 20260506153404 | 61 | 224 | 4.0 | 5.0 | 0.09 | 0.15 | 0.15 | 91 | 1008.4 |
| 20260506152901 | 61 | 96 | 3.0 | 4.0 | 0.09 | 0.14 | 0.14 | 91 | 1008.7 |
| 20260506152358 | 61 | 123 | 2.0 | 12.0 | 0.07 | 0.13 | 0.13 | 91 | 1008.7 |
| 20260506151857 | 61 | 235 | 2.0 | 4.0 | 0.09 | 0.12 | 0.12 | 90 | 1008.8 |
| 20260506151353 | 61 | 251 | 3.0 | 4.0 | 0.09 | 0.12 | 0.12 | 90 | 1008.9 |
| 20260506150851 | 62 | 225 | 4.0 | 9.0 | 0.07 | 0.11 | 0.11 | 90 | 1008.5 |
| 20260506150347 | 62 | 330 | 2.0 | 6.0 | 0.07 | 0.10 | 0.10 | 90 | 1008.6 |
| 20260506145844 | 62 | 18 | 1.0 | 2.0 | 0.05 | 0.09 | 0.09 | 90 | 1008.5 |
| 20260506145340 | 62 | 214 | 8.0 | 8.0 | 0.05 | 0.09 | 0.09 | 90 | 1008.5 |
| 20260506144838 | 62 | 57 | 2.0 | 5.0 | 0.09 | 0.08 | 0.08 | 89 | 1008.2 |
| 20260506144334 | 62 | 10 | 1.0 | 4.0 | 0.14 | 0.08 | 0.08 | 89 | 1008.5 |
| 20260506143833 | 62 | 172 | 3.0 | 4.0 | 0.12 | 0.06 | 0.06 | 88 | 1008.3 |
| 20260506143329 | 62 | 244 | 5.0 | 7.0 | 0.12 | 0.06 | 0.06 | 87 | 1008.3 |
| 20260506142828 | 62 | 30 | 2.0 | 6.0 | 0.14 | 0.05 | 0.05 | 86 | 1008.4 |
| 20260506142325 | 62 | 68 | 2.0 | 6.0 | 0.14 | 0.04 | 0.04 | 85 | 1008.3 |
| 20260506141823 | 63 | 245 | 1.0 | 4.0 | 0.09 | 0.02 | 0.02 | 84 | 1008.5 |
| 20260506141321 | 63 | 47 | 1.0 | 5.0 | 0.05 | 0.01 | 0.01 | 82 | 1008.6 |
| 20260506140819 | 63 | 348 | 1.0 | 4.0 | 0.02 | 0.01 | 0.01 | 81 | 1008.5 |
| 20260506140315 | 64 | 32 | 1.0 | 11.0 | 0.00 | 0.00 | 0.00 | 79 | 1008.6 |
| 20260506135812 | 64 | 250 | 2.0 | 4.0 | 0.00 | 0.00 | 0.00 | 79 | 1008.3 |
| 20260506135308 | 65 | 63 | 2.0 | 5.0 | 0.00 | 0.00 | 0.00 | 78 | 1008.2 |
| 20260506134805 | 65 | 243 | 2.0 | 8.0 | 0.00 | 0.00 | 0.00 | 79 | 1008.1 |
| 20260506134302 | 65 | 207 | 2.0 | 5.0 | 0.02 | 0.00 | 0.00 | 78 | 1008.3 |
| 20260506133759 | 65 | 48 | 1.0 | 7.0 | 0.02 | 0.00 | 0.00 | 78 | 1008.3 |
| 20260506133256 | 65 | 343 | 0.0 | 2.0 | 0.00 | 0.00 | 0.00 | 78 | 1008.5 |
| 20260506132752 | 64 | 60 | 2.0 | 3.0 | 0.00 | 0.00 | 0.00 | 77 | 1008.6 |
| 20260506132250 | 65 | 236 | 3.0 | 6.0 | 0.00 | 0.00 | 0.00 | 76 | 1008.2 |
| 20260506131748 | 65 | 258 | 2.0 | 5.0 | 0.00 | 0.00 | 0.00 | 75 | 1008.6 |
| 20260506131243 | 65 | 213 | 5.0 | 6.0 | 0.00 | 0.00 | 0.00 | 75 | 1008.6 |
| 20260506130740 | 65 | 28 | 1.0 | 2.0 | 0.00 | 0.00 | 0.00 | 75 | 1008.6 |
| 20260506130237 | 65 | 251 | 0.0 | 3.0 | 0.00 | 0.00 | 0.00 | 75 | 1008.7 |
| 20260506125735 | 65 | 63 | 1.0 | 10.0 | 0.00 | 0.00 | 0.00 | 75 | 1008.8 |
| 20260506125233 | 65 | 225 | 6.0 | 8.0 | 0.00 | 0.00 | 0.00 | 73 | 1008.6 |
| 20260506124731 | 65 | 241 | 5.0 | 8.0 | 0.00 | 0.00 | 0.00 | 73 | 1008.6 |
| 20260506124228 | 66 | 206 | 4.0 | 10.0 | 0.00 | 0.00 | 0.00 | 72 | 1008.7 |
| 20260506123726 | 66 | 342 | 0.0 | 5.0 | 0.00 | 0.00 | 0.00 | 71 | 1008.7 |
| 20260506123224 | 66 | 270 | 2.0 | 7.0 | 0.00 | 0.00 | 0.00 | 70 | 1008.6 |
| 20260506122721 | 66 | 245 | 4.0 | 6.0 | 0.00 | 0.00 | 0.00 | 70 | 1008.5 |
| 20260506122218 | 66 | 91 | 2.0 | 4.0 | 0.00 | 0.00 | 0.00 | 69 | 1008.4 |
| 20260506121716 | 66 | 85 | 3.0 | 5.0 | 0.00 | 0.00 | 0.00 | 69 | 1008.3 |
| 20260506121212 | 66 | 332 | 1.0 | 6.0 | 0.00 | 0.00 | 0.00 | 69 | 1008.2 |
| 20260506120710 | 66 | 27 | 2.0 | 9.0 | 0.00 | 0.00 | 0.00 | 69 | 1008.4 |
| 20260506120208 | 66 | 251 | 3.0 | 9.0 | 0.00 | 0.00 | 0.00 | 69 | 1008.4 |
| 20260506115706 | 66 | 147 | 0.0 | 2.0 | 0.00 | 0.00 | 0.00 | 70 | 1008.3 |
| 20260506115203 | 66 | 227 | 4.0 | 6.0 | 0.00 | 0.00 | 0.00 | 69 | 1008.4 |
| 20260506114700 | 66 | 22 | 0.0 | 5.0 | 0.00 | 0.00 | 0.00 | 70 | 1008.3 |
| 20260506114158 | 66 | 43 | 2.0 | 4.0 | 0.00 | 0.00 | 0.00 | 70 | 1008.3 |
| 20260506113657 | 65 | 321 | 2.0 | 10.0 | 0.00 | 0.00 | 0.00 | 70 | 1008.4 |
| 20260506113154 | 66 | 87 | 0.0 | 7.0 | 0.00 | 0.00 | 0.00 | 70 | 1008.3 |
| 20260506112649 | 66 | 230 | 1.0 | 9.0 | 0.00 | 0.00 | 0.00 | 70 | 1008.2 |
| 20260506112147 | 66 | 232 | 3.0 | 8.0 | 0.00 | 0.00 | 0.00 | 70 | 1008.2 |
| 20260506111645 | 66 | 347 | 2.0 | 4.0 | 0.00 | 0.00 | 0.00 | 69 | 1008.1 |
| 20260506111142 | 66 | 36 | 2.0 | 4.0 | 0.00 | 0.00 | 0.00 | 70 | 1008.3 |
| 20260506110639 | 66 | 247 | 2.0 | 7.0 | 0.00 | 0.00 | 0.00 | 69 | 1008.3 |
| 20260506110137 | 66 | 276 | 2.0 | 6.0 | 0.00 | 0.00 | 0.00 | 69 | 1008.4 |
| 20260506105633 | 66 | 51 | 0.0 | 6.0 | 0.00 | 0.00 | 0.00 | 69 | 1008.0 |
| 20260506105130 | 66 | 85 | 3.0 | 4.0 | 0.00 | 0.00 | 0.00 | 69 | 1007.9 |
| 20260506104629 | 66 | 298 | 3.0 | 8.0 | 0.00 | 0.00 | 0.00 | 69 | 1008.0 |
| 20260506104126 | 66 | 252 | 0.0 | 14.0 | 0.00 | 0.00 | 0.00 | 69 | 1008.2 |
| 20260506103623 | 66 | 194 | 5.0 | 14.0 | 0.00 | 0.00 | 0.00 | 69 | 1008.0 |
| 20260506103120 | 65 | 66 | 1.0 | 14.0 | 0.00 | 0.00 | 0.00 | 69 | 1007.8 |
| 20260506102618 | 65 | 53 | 2.0 | 4.0 | 0.00 | 0.00 | 0.00 | 70 | 1007.8 |
| 20260506102115 | 66 | 55 | 1.0 | 6.0 | 0.00 | 0.00 | 0.00 | 69 | 1007.7 |
| 20260506101612 | 65 | 127 | 2.0 | 4.0 | 0.00 | 0.00 | 0.00 | 70 | 1007.8 |
| 20260506101108 | 66 | 75 | 2.0 | 5.0 | 0.00 | 0.00 | 0.00 | 69 | 1007.7 |
| 20260506100607 | 66 | 219 | 4.0 | 9.0 | 0.00 | 0.00 | 0.00 | 69 | 1007.7 |
| 20260506100104 | 66 | 3 | 1.0 | 3.0 | 0.00 | 0.00 | 0.00 | 69 | 1007.7 |
| 20260506095603 | 66 | 106 | 2.0 | 4.0 | 0.00 | 0.00 | 0.00 | 69 | 1007.7 |
| 20260506095059 | 66 | 31 | 2.0 | 3.0 | 0.00 | 0.00 | 0.00 | 69 | 1007.9 |
| 20260506094557 | 66 | 251 | 5.0 | 7.0 | 0.00 | 0.00 | 0.00 | 70 | 1007.9 |
| 20260506094055 | 66 | 246 | 2.0 | 3.0 | 0.00 | 0.00 | 0.00 | 69 | 1007.9 |
| 20260506093553 | 66 | 277 | 2.0 | 3.0 | 0.00 | 0.00 | 0.00 | 69 | 1007.8 |
| 20260506093050 | 66 | 25 | 1.0 | 8.0 | 0.00 | 0.00 | 0.00 | 69 | 1007.8 |
| 20260506092548 | 66 | 233 | 4.0 | 4.0 | 0.00 | 0.00 | 0.00 | 69 | 1007.9 |
| 20260506092044 | 66 | 56 | 2.0 | 3.0 | 0.00 | 0.00 | 0.00 | 69 | 1007.8 |
| 20260506091543 | 66 | 45 | 0.0 | 3.0 | 0.00 | 0.00 | 0.00 | 69 | 1008.0 |
| 20260506091039 | 66 | 243 | 2.0 | 4.0 | 0.00 | 0.00 | 0.00 | 68 | 1007.9 |
| 20260506090537 | 66 | 22 | 2.0 | 7.0 | 0.00 | 0.00 | 0.00 | 68 | 1008.2 |
| 20260506090033 | 66 | 43 | 1.0 | 4.0 | 0.00 | 0.00 | 0.00 | 67 | 1007.9 |
| 20260506085530 | 66 | 89 | 2.0 | 2.0 | 0.00 | 0.00 | 0.00 | 67 | 1007.9 |
| 20260506085027 | 66 | 224 | 3.0 | 7.0 | 0.00 | 0.00 | 0.00 | 67 | 1008.1 |
| 20260506084524 | 66 | 56 | 1.0 | 4.0 | 0.00 | 0.00 | 0.00 | 67 | 1008.1 |
| 20260506084020 | 66 | 146 | 2.0 | 4.0 | 0.00 | 0.00 | 0.00 | 67 | 1008.1 |
| 20260506083517 | 66 | 321 | 3.0 | 3.0 | 0.00 | 0.00 | 0.00 | 66 | 1008.1 |
| 20260506083015 | 66 | 254 | 1.0 | 5.0 | 0.00 | 0.00 | 0.00 | 66 | 1008.0 |
| 20260506082511 | 67 | 245 | 2.0 | 7.0 | 0.00 | 0.00 | 0.00 | 66 | 1008.3 |
| 20260506082007 | 66 | 149 | 2.0 | 4.0 | 0.00 | 0.00 | 0.00 | 66 | 1008.1 |
| 20260506081505 | 67 | 218 | 5.0 | 5.0 | 0.00 | 0.00 | 0.00 | 65 | 1007.9 |
| 20260506081003 | 67 | 279 | 1.0 | 10.0 | 0.00 | 0.00 | 0.00 | 65 | 1008.1 |
| 20260506080500 | 67 | 17 | 2.0 | 4.0 | 0.00 | 0.00 | 0.00 | 65 | 1008.1 |
| 20260506073443 | 66 | 287 | 1.0 | 4.0 | 0.00 | 0.00 | 0.00 | 63 | 1008.1 |
| 20260506072941 | 66 | 223 | 1.0 | 6.0 | 0.00 | 0.00 | 0.00 | 63 | 1008.3 |
| 20260506072437 | 66 | 266 | 3.0 | 3.0 | 0.00 | 0.00 | 0.00 | 63 | 1008.3 |
| 20260506071936 | 66 | 240 | 5.0 | 7.0 | 0.00 | 0.00 | 0.00 | 63 | 1008.2 |
| 20260506071433 | 66 | 74 | 2.0 | 4.0 | 0.00 | 0.00 | 0.00 | 63 | 1008.3 |
| 20260506070930 | 66 | 42 | 0.0 | 3.0 | 0.00 | 0.00 | 0.00 | 62 | 1008.2 |
| 20260506070427 | 66 | 302 | 1.0 | 5.0 | 0.00 | 0.00 | 0.00 | 62 | 1008.4 |
| 20260506062404 | 67 | 57 | 2.0 | 2.0 | 0.00 | 0.00 | 0.00 | 59 | 1008.8 |
| 20260506061900 | 67 | 36 | 1.0 | 3.0 | 0.00 | 0.00 | 0.00 | 59 | 1008.7 |
| 20260506061357 | 66 | 283 | 2.0 | 3.0 | 0.00 | 0.00 | 0.00 | 59 | 1008.8 |
| 20260506060855 | 66 | 34 | 1.0 | 2.0 | 0.00 | 0.00 | 0.00 | 60 | 1008.8 |
| 20260506060353 | 66 | 6 | 0.0 | 2.0 | 0.00 | 0.00 | 0.00 | 61 | 1008.9 |
| 20260506051325 | 66 | 54 | 0.0 | 3.0 | 0.00 | 0.00 | 0.00 | 60 | 1009.2 |
| 20260506050823 | 66 | 63 | 1.0 | 2.0 | 0.00 | 0.00 | 0.00 | 60 | 1009.4 |
| 20260506050319 | 66 | 61 | 2.0 | 3.0 | 0.00 | 0.00 | 0.00 | 61 | 1009.4 |
| 20260506044810 | 66 | 35 | 2.0 | 2.0 | 0.00 | 0.00 | 0.00 | 59 | 1009.3 |
| 20260506044307 | 66 | 29 | 1.0 | 2.0 | 0.00 | 0.00 | 0.00 | 59 | 1009.5 |
| 20260506043804 | 66 | 49 | 2.0 | 2.0 | 0.00 | 0.00 | 0.00 | 59 | 1009.3 |
| 20260506043301 | 66 | 36 | 0.0 | 2.0 | 0.00 | 0.00 | 0.00 | 59 | 1009.2 |
| 20260506042801 | 66 | 37 | 1.0 | 2.0 | 0.00 | 0.00 | 0.00 | 58 | 1009.4 |
| 20260506042259 | 66 | 305 | 0.0 | 2.0 | 0.00 | 0.00 | 0.00 | 57 | 1009.5 |
| 20260506041757 | 67 | 41 | 1.0 | 2.0 | 0.00 | 0.00 | 0.00 | 57 | 1009.5 |
| 20260506041253 | 67 | 48 | 2.0 | 2.0 | 0.00 | 0.00 | 0.00 | 56 | 1009.2 |
| 20260506040751 | 67 | 17 | 1.0 | 2.0 | 0.00 | 0.00 | 0.00 | 55 | 1009.1 |
| 20260506040248 | 67 | 58 | 2.0 | 2.0 | 0.00 | 0.00 | 0.00 | 55 | 1009.2 |
| 20260506035745 | 68 | 39 | 1.0 | 2.0 | 0.00 | 0.00 | 0.00 | 54 | 1009.4 |
| 20260506035242 | 68 | 16 | 1.0 | 2.0 | 0.00 | 0.00 | 0.00 | 53 | 1009.2 |
| 20260506034738 | 68 | 43 | 0.0 | 2.0 | 0.00 | 0.00 | 0.00 | 53 | 1009.0 |
| 20260506034236 | 68 | 9 | 1.0 | 2.0 | 0.00 | 0.00 | 0.00 | 53 | 1009.3 |
| 20260506033733 | 68 | 47 | 3.0 | 3.0 | 0.00 | 0.00 | 0.00 | 52 | 1009.2 |
| 20260506033230 | 68 | 55 | 2.0 | 2.0 | 0.00 | 0.00 | 0.00 | 52 | 1009.1 |
| 20260506032727 | 69 | 69 | 0.0 | 2.0 | 0.00 | 0.00 | 0.00 | 51 | 1009.1 |
| 20260506032223 | 69 | 50 | 2.0 | 2.0 | 0.00 | 0.00 | 0.00 | 51 | 1008.9 |
| 20260506031720 | 69 | 53 | 2.0 | 2.0 | 0.00 | 0.00 | 0.00 | 50 | 1009.1 |
| 20260506031218 | 69 | 53 | 0.0 | 2.0 | 0.00 | 0.00 | 0.00 | 50 | 1009.3 |
| 20260506030716 | 69 | 11 | 3.0 | 3.0 | 0.00 | 0.00 | 0.00 | 50 | 1009.1 |
| 20260506030213 | 69 | 35 | 1.0 | 2.0 | 0.00 | 0.00 | 0.00 | 50 | 1009.0 |
| 20260506025709 | 69 | 190 | 1.0 | 2.0 | 0.00 | 0.00 | 0.00 | 49 | 1009.1 |
| 20260506025206 | 70 | 29 | 0.0 | 2.0 | 0.00 | 0.00 | 0.00 | 49 | 1009.2 |
| 20260506024703 | 70 | 24 | 1.0 | 2.0 | 0.00 | 0.00 | 0.00 | 48 | 1009.2 |
| 20260506024159 | 70 | 31 | 1.0 | 2.0 | 0.00 | 0.00 | 0.00 | 48 | 1009.0 |
| 20260506023656 | 71 | 11 | 2.0 | 3.0 | 0.00 | 0.00 | 0.00 | 47 | 1009.2 |
| 20260506023153 | 71 | 301 | 0.0 | 2.0 | 0.00 | 0.00 | 0.00 | 46 | 1009.1 |
| 20260506022650 | 71 | 22 | 2.0 | 3.0 | 0.00 | 0.00 | 0.00 | 45 | 1009.2 |
| 20260506022148 | 71 | 334 | 2.0 | 4.0 | 0.00 | 0.00 | 0.00 | 45 | 1009.1 |
| 20260506021646 | 71 | 234 | 0.0 | 3.0 | 0.00 | 0.00 | 0.00 | 45 | 1009.1 |
| 20260506021142 | 72 | 246 | 3.0 | 5.0 | 0.00 | 0.00 | 0.00 | 44 | 1009.0 |
| 20260506020639 | 72 | 66 | 2.0 | 2.0 | 0.00 | 0.00 | 0.00 | 44 | 1009.1 |
| 20260506020137 | 72 | 1 | 1.0 | 3.0 | 0.00 | 0.00 | 0.00 | 44 | 1009.2 |
| 20260506015634 | 72 | 186 | 2.0 | 5.0 | 0.00 | 0.00 | 0.00 | 44 | 1009.0 |
| 20260506015131 | 72 | 10 | 1.0 | 3.0 | 0.00 | 0.00 | 0.00 | 44 | 1008.9 |
| 20260506014629 | 73 | 13 | 0.0 | 3.0 | 0.00 | 0.00 | 0.00 | 43 | 1008.7 |
| 20260506014124 | 73 | 238 | 0.0 | 2.0 | 0.00 | 0.00 | 0.00 | 42 | 1008.8 |
| 20260506013623 | 74 | 89 | 2.0 | 6.0 | 0.00 | 0.00 | 0.00 | 41 | 1008.8 |
| 20260506013119 | 74 | 240 | 4.0 | 10.0 | 0.00 | 0.00 | 0.00 | 40 | 1008.9 |
| 20260506012616 | 74 | 50 | 0.0 | 5.0 | 0.00 | 0.00 | 0.00 | 41 | 1008.5 |
| 20260506012112 | 74 | 13 | 1.0 | 2.0 | 0.00 | 0.00 | 0.00 | 41 | 1008.4 |
| 20260506011610 | 74 | 99 | 0.0 | 11.0 | 0.00 | 0.00 | 0.00 | 40 | 1008.5 |
| 20260506011106 | 74 | 125 | 1.0 | 2.0 | 0.00 | 0.00 | 0.00 | 40 | 1008.4 |
| 20260506010606 | 74 | 74 | 1.0 | 4.0 | 0.00 | 0.00 | 0.00 | 39 | 1008.3 |
| 20260506005559 | 75 | 302 | 0.0 | 9.0 | 0.00 | 0.00 | 0.00 | 38 | 1008.3 |
| 20260506005055 | 75 | 341 | 1.0 | 3.0 | 0.00 | 0.00 | 0.00 | 38 | 1008.2 |
| 20260506004552 | 75 | 245 | 1.0 | 3.0 | 0.00 | 0.00 | 0.00 | 38 | 1008.2 |
| 20260506004049 | 75 | 235 | 5.0 | 6.0 | 0.00 | 0.00 | 0.00 | 38 | 1008.2 |
| 20260506003545 | 75 | 94 | 2.0 | 4.0 | 0.00 | 0.00 | 0.00 | 39 | 1008.3 |
| 20260506003042 | 75 | 256 | 2.0 | 4.0 | 0.00 | 0.00 | 0.00 | 38 | 1007.9 |
| 20260506002537 | 75 | 43 | 1.0 | 3.0 | 0.00 | 0.00 | 0.00 | 38 | 1008.1 |
| 20260506002033 | 75 | 256 | 6.0 | 6.0 | 0.00 | 0.00 | 0.00 | 37 | 1007.9 |
| 20260506001530 | 75 | 353 | 0.0 | 3.0 | 0.00 | 0.00 | 0.00 | 37 | 1007.9 |
| 20260506001027 | 76 | 230 | 4.0 | 6.0 | 0.00 | 0.00 | 0.00 | 37 | 1007.9 |
| 20260506000525 | 76 | 40 | 2.0 | 3.0 | 0.00 | 0.00 | 0.00 | 37 | 1007.8 |
| 20260506000022 | 76 | 309 | 0.0 | 3.0 | 0.00 | 0.00 | 0.00 | 37 | 1007.8 |
| 20260505235520 | 76 | 264 | 2.0 | 5.0 | 0.00 | 0.00 | 0.00 | 36 | 1007.7 |
| 20260505235016 | 77 | 79 | 0.0 | 3.0 | 0.00 | 0.00 | 0.00 | 36 | 1007.7 |
| 20260505234514 | 77 | 96 | 2.0 | 5.0 | 0.00 | 0.00 | 0.00 | 35 | 1007.9 |
| 20260505234010 | 77 | 225 | 6.0 | 10.0 | 0.00 | 0.00 | 0.00 | 36 | 1007.5 |
| 20260505233508 | 77 | 269 | 1.0 | 4.0 | 0.00 | 0.00 | 0.00 | 35 | 1007.6 |
| 20260505233005 | 77 | 342 | 2.0 | 13.0 | 0.00 | 0.00 | 0.00 | 35 | 1007.7 |
| 20260505232503 | 77 | 284 | 3.0 | 6.0 | 0.00 | 0.00 | 0.00 | 35 | 1007.9 |
| 20260505232000 | 77 | 211 | 6.0 | 9.0 | 0.00 | 0.00 | 0.00 | 35 | 1007.5 |
| 20260505231457 | 78 | 260 | 2.0 | 10.0 | 0.00 | 0.00 | 0.00 | 35 | 1007.5 |
| 20260505230955 | 78 | 258 | 3.0 | 10.0 | 0.00 | 0.00 | 0.00 | 35 | 1007.6 |
| 20260505230453 | 78 | 77 | 3.0 | 9.0 | 0.00 | 0.00 | 0.00 | 35 | 1007.4 |
| 20260505225949 | 78 | 46 | 2.0 | 4.0 | 0.00 | 0.00 | 0.00 | 36 | 1007.5 |
| 20260505225446 | 78 | 256 | 2.0 | 9.0 | 0.00 | 0.00 | 0.00 | 35 | 1007.5 |
| 20260505224942 | 79 | 233 | 4.0 | 5.0 | 0.00 | 0.00 | 0.00 | 34 | 1007.7 |
| 20260505224439 | 79 | 228 | 10.0 | 10.0 | 0.00 | 0.00 | 0.00 | 33 | 1007.2 |
| 20260505223936 | 79 | 280 | 3.0 | 11.0 | 0.00 | 0.00 | 0.00 | 33 | 1007.3 |
| 20260505223433 | 80 | 250 | 5.0 | 9.0 | 0.00 | 0.00 | 0.00 | 32 | 1007.4 |
| 20260505222929 | 80 | 243 | 2.0 | 12.0 | 0.00 | 0.00 | 0.00 | 31 | 1007.2 |
| 20260505222426 | 80 | 231 | 9.0 | 20.0 | 0.00 | 0.00 | 0.00 | 30 | 1007.2 |
| 20260505221922 | 80 | 253 | 7.0 | 15.0 | 0.00 | 0.00 | 0.00 | 30 | 1007.2 |
| 20260505221419 | 80 | 267 | 4.0 | 17.0 | 0.00 | 0.00 | 0.00 | 30 | 1007.4 |
| 20260505220916 | 80 | 252 | 4.0 | 11.0 | 0.00 | 0.00 | 0.00 | 31 | 1007.2 |
| 20260505220413 | 81 | 208 | 5.0 | 10.0 | 0.00 | 0.00 | 0.00 | 31 | 1007.3 |
| 20260505215911 | 80 | 265 | 3.0 | 13.0 | 0.00 | 0.00 | 0.00 | 31 | 1007.2 |
| 20260505215409 | 80 | 193 | 6.0 | 8.0 | 0.00 | 0.00 | 0.00 | 31 | 1007.1 |
| 20260505214906 | 80 | 303 | 3.0 | 11.0 | 0.00 | 0.00 | 0.00 | 31 | 1007.1 |
| 20260505214404 | 80 | 278 | 4.0 | 16.0 | 0.00 | 0.00 | 0.00 | 31 | 1007.3 |
| 20260505213901 | 81 | 241 | 4.0 | 13.0 | 0.00 | 0.00 | 0.00 | 31 | 1007.2 |
| 20260505213359 | 81 | 198 | 5.0 | 13.0 | 0.00 | 0.00 | 0.00 | 32 | 1007.3 |
| 20260505212854 | 80 | 234 | 2.0 | 10.0 | 0.00 | 0.00 | 0.00 | 32 | 1007.2 |
| 20260505212352 | 80 | 237 | 8.0 | 12.0 | 0.00 | 0.00 | 0.00 | 31 | 1007.3 |
| 20260505211848 | 80 | 206 | 4.0 | 12.0 | 0.00 | 0.00 | 0.00 | 33 | 1007.1 |
| 20260505211346 | 81 | 234 | 5.0 | 11.0 | 0.00 | 0.00 | 0.00 | 33 | 1007.2 |
| 20260505210842 | 81 | 244 | 5.0 | 6.0 | 0.00 | 0.00 | 0.00 | 33 | 1007.0 |
| 20260505210339 | 80 | 221 | 12.0 | 13.0 | 0.00 | 0.00 | 0.00 | 33 | 1007.0 |
| 20260505205835 | 80 | 223 | 4.0 | 12.0 | 0.00 | 0.00 | 0.00 | 32 | 1007.0 |
| 20260505205334 | 81 | 128 | 3.0 | 12.0 | 0.00 | 0.00 | 0.00 | 32 | 1007.2 |
| 20260505204830 | 81 | 340 | 2.0 | 17.0 | 0.00 | 0.00 | 0.00 | 32 | 1007.0 |
| 20260505204328 | 81 | 250 | 6.0 | 6.0 | 0.00 | 0.00 | 0.00 | 33 | 1007.2 |
| 20260505203826 | 81 | 53 | 0.0 | 10.0 | 0.00 | 0.00 | 0.00 | 32 | 1007.2 |
| 20260505203322 | 81 | 255 | 3.0 | 12.0 | 0.00 | 0.00 | 0.00 | 32 | 1007.2 |
| 20260505202818 | 81 | 230 | 5.0 | 9.0 | 0.00 | 0.00 | 0.00 | 32 | 1007.2 |
| 20260505202314 | 81 | 260 | 5.0 | 8.0 | 0.00 | 0.00 | 0.00 | 32 | 1007.2 |